Wind_Speed
28 31 36 39 34 23 14 22 35 27 29 26 33 38 33 32 33 32 26 11 9 4 11 6 6 10 21 23 10 6 8 8 5 4 7 4 10 13 17 20 21 20 22 18 20 20 19 21 23
27 33 36 40 42 38 31 23 16 14 24 25 29 28 29 28 35 25 8 3 3 7 10 7 10 14 17 14 7 8 10 9 8 9 8 5 7 9 13 18 21 22 18 20 21 18 20 20 21
33 32 35 40 40 42 40 36 32 26 18 24 27 23 23 21 6 9 5 6 8 10 11 12 17 19 10 7 8 10 13 13 12 10 6 2 4 6 12 14 18 19 20 17 20 20 17 19 20
38 38 33 33 37 40 40 39 37 36 34 31 28 22 18 11 4 1 5 7 10 21 17 19 21 8 4 4 8 12 14 13 12 7 5 3 4 7 10 10 13 16 16 18 18 18 19 17 19
41 41 39 37 32 34 35 36 37 36 34 34 32 29 22 16 11 3 4 5 6 4 5 3 4 5 5 7 9 12 12 13 13 8 4 3 4 8 9 10 13 15 10 17 20 17 16 17 17
37 38 43 44 38 33 31 32 32 32 34 33 30 28 25 23 22 20 17 14 12 12 11 11 11 7 8 9 9 11 12 12 11 11 10 9 8 8 8 9 14 14 5 10 18 20 16 14 16
32 39 42 43 41 38 36 30 29 25 27 28 25 25 23 21 18 17 15 13 10 10 9 9 8 7 6 5 5 8 9 11 12 12 12 12 12 11 13 13 11 9 3 7 13 16 15 13 12
32 35 38 40 39 37 41 39 27 20 20 23 24 22 19 18 17 17 15 14 13 12 11 9 7 5 4 4 6 8 8 9 10 11 12 13 13 13 12 12 10 6 9 13 14 15 15 7 9
30 30 31 36 37 37 39 41 35 28 22 19 17 17 15 13 12 13 13 12 12 11 11 10 9 8 7 7 8 9 11 11 12 13 14 13 14 14 12 12 11 10 9 13 16 17 16 9 8
27 29 32 34 33 33 35 39 38 35 31 30 26 23 17 15 13 10 10 8 7 7 8 9 9 9 10 11 12 12 12 14 15 15 17 17 16 16 15 15 12 13 10 10 12 12 10 11 10
24 24 25 29 30 31 34 35 40 39 33 30 28 26 23 19 17 16 13 11 10 9 9 10 11 12 14 14 14 15 16 17 18 19 22 23 23 22 23 22 19 18 16 14 12 13 11 11 11
19 21 22 25 25 28 27 32 36 38 37 31 29 28 27 26 20 16 14 13 12 12 13 13 14 15 18 19 20 22 22 23 24 26 25 25 23 23 23 26 25 23 22 19 17 17 16 12 14
15 17 21 25 25 25 24 33 34 34 35 35 31 29 28 27 25 23 19 14 13 13 13 14 15 17 19 21 21 21 23 24 24 25 26 27 27 26 24 23 26 28 28 25 24 23 21 19 14
14 18 21 23 25 24 17 29 37 35 33 32 32 31 30 30 29 26 24 21 16 13 13 15 17 19 20 22 24 24 24 26 26 26 26 26 27 27 27 26 25 26 28 30 29 26 27 25 21
11 17 20 21 26 26 20 21 27 32 34 31 32 33 32 29 29 29 29 26 22 20 18 17 17 18 20 22 24 25 25 26 24 24 22 20 22 26 27 28 27 27 28 28 28 30 29 26 28
12 15 16 18 22 25 25 21 28 29 33 33 33 33 34 32 32 31 32 31 27 23 21 21 21 22 23 23 24 26 25 23 21 17 16 19 22 26 26 29 28 25 25 27 27 25 28 32 29
7 10 16 13 19 21 22 22 24 28 32 35 35 34 34 35 35 34 35 36 35 31 28 25 25 26 27 27 26 24 23 22 14 14 21 21 23 26 26 27 25 24 23 22 23 22 25 31 35
2 7 11 14 18 20 20 20 23 27 31 36 35 35 34 34 37 37 36 37 35 31 28 28 27 30 29 30 29 26 25 20 18 22 23 27 28 33 27 27 26 23 23 23 24 25 23 24 32
5 5 5 11 18 19 21 19 23 27 31 35 36 37 35 37 38 36 36 37 35 33 32 30 29 30 30 31 30 27 23 19 24 24 23 32 32 34 27 27 28 27 25 25 26 26 28 28 28
10 4 8 14 14 17 23 21 23 27 33 34 39 38 37 37 35 34 37 38 40 40 38 36 35 35 35 35 33 29 27 25 27 26 28 31 32 29 22 23 24 27 30 31 29 26 26 28 29
12 14 13 13 14 16 17 20 24 29 33 35 40 38 38 38 39 36 38 39 41 41 41 41 38 39 38 36 32 30 26 24 20 25 24 28 31 23 21 21 20 21 20 24 26 29 31 31 29
9 12 12 10 18 19 16 20 24 32 34 36 41 40 39 38 41 37 38 40 42 43 41 40 39 41 40 37 36 34 32 30 27 27 27 27 27 16 15 13 12 16 22 19 23 24 25 29 33
7 19 13 17 23 27 22 21 27 36 38 39 42 42 43 41 47 44 45 42 46 44 42 42 40 40 39 38 37 36 34 30 29 31 33 24 18 24 22 15 14 12 15 21 22 27 31 29 32
9 16 18 21 29 24 24 27 33 36 39 42 46 46 48 46 50 50 50 50 52 49 47 45 44 43 43 41 39 39 36 30 27 25 27 24 32 36 37 29 17 17 19 20 22 30 30 33 38
21 23 20 23 23 26 29 32 34 36 40 44 43 48 47 45 49 50 47 42 48 52 47 44 42 43 45 38 37 36 31 29 28 26 30 28 22 31 36 36 43 31 27 25 26 36 30 35 43
30 27 22 26 26 24 28 31 33 36 42 42 45 47 47 47 49 51 52 44 47 48 49 49 47 45 45 51 39 37 36 36 38 30 23 28 37 41 52 58 51 48 43 42 32 38 42 37 43
25 22 27 30 28 25 30 34 36 36 41 43 47 50 50 53 54 54 52 45 45 51 50 48 45 43 41 37 42 40 38 36 33 30 34 33 50 40 43 36 45 63 62 64 57 52 50 46 48
28 28 30 31 29 27 35 37 35 42 47 45 47 50 53 59 58 57 54 48 50 56 57 55 52 52 52 46 44 41 42 38 41 40 44 46 45 39 39 44 56 49 47 62 66 66 59 51 52
34 31 30 33 34 34 35 36 39 45 48 48 48 53 58 61 62 62 60 53 53 58 61 61 60 60 58 55 51 51 50 51 45 48 50 55 46 46 40 43 39 44 44 49 51 69 69 61 61
35 37 37 38 36 38 39 40 44 50 53 52 53 57 64 64 65 65 59 53 56 59 65 65 65 64 61 60 61 58 59 56 52 49 51 53 58 59 52 46 50 48 45 53 71 57 58 62 44
Wind_Direction
46 45 45 49 62 85 145 194 209 225 223 225 222 224 233 235 246 240 274 307 291 339 301 286 338 337 324 329 349 22 16 16 13 107 131 113 53 37 34 31 30 38 43 45 50 41 48 50 50
46 50 52 53 59 68 80 99 127 164 208 221 220 231 237 246 242 260 324 55 257 292 316 307 289 291 314 351 9 23 27 39 69 114 128 93 64 33 24 32 33 36 50 53 50 48 37 45 49
54 55 57 60 59 64 68 70 78 98 139 191 214 224 229 242 271 238 342 332 318 313 320 299 325 309 355 355 21 30 42 56 72 104 111 92 71 34 10 25 21 24 31 46 51 47 40 43 45
59 60 65 65 65 67 70 71 72 75 83 92 108 103 108 118 104 16 345 330 268 295 294 283 306 326 38 41 41 40 51 54 67 101 98 80 45 9 2 10 4 5 20 39 41 41 45 37 37
60 59 62 65 63 68 67 68 71 74 77 83 85 84 80 74 66 47 339 276 326 340 344 39 72 60 64 25 42 35 35 42 46 49 47 6 2 359 352 343 348 356 9 29 35 35 28 38 46
66 63 59 57 53 57 68 69 68 66 66 69 74 74 76 76 78 79 78 83 77 75 72 73 72 65 41 32 25 13 19 25 25 24 20 11 4 10 8 346 340 335 359 18 25 27 25 19 31
62 56 57 57 57 53 56 65 67 66 78 74 71 73 73 74 73 71 72 69 67 69 68 69 69 54 32 18 3 356 4 10 6 2 359 351 352 352 355 351 349 317 338 358 2 6 15 11 23
58 52 53 51 50 53 54 57 66 65 58 68 66 59 62 60 55 50 52 54 55 56 55 57 53 42 22 2 353 356 10 13 4 355 344 339 342 343 344 359 350 305 287 304 318 334 344 345 10
50 55 58 53 48 42 49 50 56 58 55 50 56 55 62 60 57 53 42 34 26 21 22 23 16 15 9 7 355 348 349 347 341 333 329 324 327 330 332 334 345 344 309 300 305 315 310 314 350
57 57 57 54 48 49 45 48 49 58 50 46 47 51 49 40 32 25 20 11 8 2 358 354 347 338 328 323 319 317 315 315 312 313 310 304 305 308 312 304 303 308 314 310 313 316 294 293 290
61 58 59 50 48 42 49 48 48 50 55 50 44 38 36 32 19 11 358 343 334 323 314 310 303 300 298 297 297 297 300 297 299 297 304 300 303 296 294 294 294 291 288 289 299 313 300 278 270
64 65 61 63 52 46 43 47 47 48 48 48 45 41 34 30 25 12 2 353 334 321 310 300 295 295 294 295 292 288 290 291 294 295 300 303 304 300 292 287 285 281 280 276 281 288 289 294 267
60 70 60 59 52 45 44 41 42 41 42 43 40 37 36 28 19 10 1 347 323 316 315 308 304 307 309 308 303 298 298 300 300 302 306 307 308 305 302 297 283 278 278 274 271 273 276 274 277
69 57 46 44 45 40 40 33 41 35 36 36 37 35 31 28 16 7 358 349 342 333 323 313 307 306 304 304 303 306 307 305 305 309 312 312 311 310 305 299 293 285 280 275 271 265 266 268 262
67 53 50 50 38 38 37 23 35 30 31 26 29 28 24 22 14 5 358 353 345 342 338 333 326 318 311 308 306 302 300 300 304 308 311 324 330 319 307 300 292 288 283 278 274 272 261 263 267
72 51 46 55 43 35 35 30 26 24 28 26 20 18 17 13 12 9 6 357 348 340 333 326 321 316 308 303 301 299 298 296 299 308 312 323 323 325 317 313 299 284 281 280 278 268 258 256 259
80 50 42 54 35 37 26 20 22 14 18 18 15 12 13 9 9 12 11 6 357 351 342 333 326 320 313 307 301 299 297 296 292 304 325 317 321 331 319 306 299 287 280 276 274 275 265 255 256
122 50 27 41 39 28 15 11 10 10 11 11 8 7 11 6 9 10 7 6 1 357 348 337 326 321 317 309 308 303 286 289 303 309 305 316 319 331 320 314 305 299 286 278 277 274 271 267 258
251 314 18 30 28 25 358 2 0 2 1 3 4 6 6 5 6 4 3 1 359 356 349 342 333 328 325 318 316 313 305 291 306 299 296 319 322 328 317 314 310 306 303 293 284 282 279 274 267
245 312 336 343 6 15 357 358 352 351 354 356 359 3 360 359 358 1 356 356 355 354 350 343 339 333 331 327 323 321 315 297 295 298 304 316 313 321 322 319 316 310 308 306 300 289 287 282 280
258 268 305 340 356 9 350 352 344 343 344 351 358 358 353 354 353 356 352 352 354 351 347 343 338 335 334 332 330 326 319 305 301 299 309 313 323 330 344 350 345 325 314 303 299 295 291 284 277
284 263 278 311 342 349 346 340 338 340 340 343 350 350 349 348 347 349 349 349 354 352 347 343 339 338 337 336 332 329 325 313 303 295 301 304 306 320 338 325 338 339 341 323 312 298 291 288 281
261 273 286 326 318 324 330 327 325 331 333 334 339 342 344 341 344 347 346 348 355 350 348 344 342 340 338 334 329 327 323 321 312 313 311 306 297 320 329 331 315 322 312 310 307 304 298 296 291
257 251 298 316 316 320 324 323 321 326 328 331 335 341 341 342 341 342 345 344 350 350 347 346 340 338 339 337 331 326 328 322 310 327 320 320 306 304 308 323 305 306 300 295 300 304 310 316 301
242 268 293 308 311 318 318 319 321 320 325 327 334 338 338 336 337 336 337 338 346 346 343 342 338 337 336 340 333 329 325 313 311 319 312 320 320 312 294 295 297 294 304 287 289 303 298 301 297
251 263 284 297 302 303 308 312 316 316 318 326 331 335 334 334 332 329 333 333 342 344 341 340 339 340 337 330 328 321 313 305 306 299 292 290 301 298 283 298 286 282 296 293 281 289 303 293 296
245 269 283 289 298 300 300 305 311 314 321 325 329 332 331 330 327 327 330 324 335 337 338 337 335 330 329 324 318 313 309 291 281 279 272 292 302 287 297 277 274 269 284 284 280 284 295 299 283
267 278 279 283 285 291 293 298 305 309 317 320 325 326 326 325 325 326 329 326 320 329 335 335 333 331 328 325 325 317 313 305 287 281 269 273 285 290 290 282 261 266 277 277 279 282 289 296 291
275 278 284 287 284 283 283 291 300 309 313 313 320 320 323 323 324 327 332 325 322 328 333 332 332 331 328 324 324 319 315 309 295 289 282 278 270 276 287 282 258 265 270 270 280 277 281 289 280
273 279 283 280 283 278 280 288 298 302 304 304 307 312 321 322 325 327 326 319 322 327 329 328 327 326 325 321 320 319 316 310 301 289 280 273 266 276 273 276 265 264 261 265 262 273 268 270 274
Height
10983 10978 10974 10967 10961 10958 10958 10964 10968 10972 10972 10976 10979 10983 10984 10985 10985 10987 10991 10987 10985 10983 10986 10984 10984 10984 10983 10981 10980 10979 10978 10976 10975 10975 10976 10977 10975 10974 10972 10970 10968 10968 10966 10963 10961 10958 10956 10954 10952
10987 10981 10978 10973 10969 10965 10965 10966 10965 10968 10970 10973 10978 10981 10982 10984 10983 10986 10987 10984 10986 10985 10985 10984 10983 10982 10981 10980 10980 10978 10977 10975 10975 10975 10976 10977 10977 10977 10976 10974 10972 10971 10970 10967 10964 10962 10960 10957 10956
10989 10986 10982 10980 10978 10973 10969 10968 10969 10970 10969 10972 10977 10980 10981 10983 10984 10986 10986 10985 10985 10984 10984 10983 10983 10982 10980 10980 10979 10978 10977 10977 10977 10977 10978 10978 10978 10978 10977 10976 10973 10973 10972 10970 10968 10965 10963 10962 10960
10996 10994 10991 10989 10986 10982 10979 10976 10974 10972 10972 10974 10976 10978 10981 10984 10985 10985 10985 10984 10984 10983 10983 10982 10982 10981 10981 10980 10979 10978 10977 10977 10978 10979 10980 10980 10979 10979 10977 10976 10975 10975 10974 10971 10969 10967 10966 10965 10963
11003 11000 10998 10993 10991 10987 10985 10984 10983 10982 10981 10979 10979 10981 10982 10982 10983 10985 10985 10984 10984 10982 10982 10982 10982 10982 10983 10982 10981 10980 10979 10978 10978 10978 10979 10980 10981 10980 10978 10975 10974 10975 10976 10973 10972 10970 10967 10967 10967
11009 11007 11001 10994 10995 10994 10990 10988 10987 10985 10984 10983 10984 10984 10985 10985 10985 10985 10985 10986 10985 10984 10984 10984 10983 10984 10985 10985 10983 10982 10981 10979 10979 10980 10980 10981 10982 10981 10980 10978 10976 10974 10975 10974 10973 10973 10971 10968 10968
11011 11007 11002 11000 11000 11001 10997 10993 10989 10992 10992 10991 10990 10989 10989 10989 10989 10988 10988 10988 10988 10987 10986 10985 10985 10985 10986 10985 10984 10984 10983 10982 10981 10981 10981 10981 10981 10981 10981 10980 10978 10976 10975 10973 10973 10974 10975 10972 10970
11015 11010 11008 11007 11006 11006 11002 10998 10998 10996 10994 10993 10993 10992 10992 10992 10992 10991 10991 10991 10991 10990 10989 10987 10987 10986 10987 10987 10986 10986 10985 10984 10983 10983 10981 10981 10980 10979 10979 10980 10979 10978 10977 10975 10974 10974 10974 10974 10973
11018 11016 11013 11011 11011 11014 11009 11005 11004 11002 10998 10997 10997 10996 10995 10995 10995 10994 10994 10993 10993 10992 10991 10990 10989 10988 10988 10988 10987 10986 10984 10983 10983 10981 10980 10979 10977 10976 10977 10977 10977 10977 10977 10975 10974 10974 10973 10973 10973
11022 11020 11018 11017 11016 11016 11016 11010 11007 11004 11002 11000 10999 10998 10998 10997 10997 10996 10994 10994 10993 10992 10991 10989 10989 10988 10987 10987 10985 10984 10983 10982 10982 10981 10979 10978 10976 10974 10974 10973 10973 10973 10974 10972 10972 10972 10971 10972 10973
11026 11024 11022 11021 11020 11021 11018 11015 11010 11007 11007 11006 11003 11000 10999 10999 10997 10995 10994 10993 10993 10991 10989 10988 10987 10987 10986 10985 10984 10982 10980 10980 10980 10979 10978 10976 10974 10973 10971 10971 10970 10968 10969 10969 10970 10968 10969 10969 10970
11030 11026 11026 11025 11024 11022 11022 11018 11014 11011 11011 11009 11006 11004 11001 10998 10998 10996 10993 10991 10989 10989 10987 10987 10985 10984 10983 10982 10981 10979 10978 10977 10976 10975 10973 10971 10969 10969 10968 10966 10966 10965 10964 10965 10966 10966 10966 10966 10965
11032 11030 11029 11026 11026 11024 11024 11022 11016 11013 11011 11009 11009 11008 11004 11000 10997 10995 10992 10990 10987 10986 10985 10983 10982 10981 10979 10977 10976 10975 10973 10971 10970 10969 10969 10967 10965 10963 10962 10961 10960 10960 10959 10960 10963 10963 10963 10963 10963
11033 11032 11030 11029 11027 11026 11028 11025 11019 11017 11014 11014 11012 11008 11005 11002 10998 10996 10992 10990 10986 10982 10980 10980 10978 10976 10975 10973 10970 10970 10968 10967 10965 10964 10962 10960 10959 10957 10956 10955 10955 10954 10954 10955 10956 10958 10958 10958 10959
11034 11033 11033 11031 11030 11029 11029 11028 11024 11023 11019 11015 11011 11008 11005 11002 10999 10996 10992 10988 10985 10982 10978 10975 10974 10972 10971 10969 10967 10965 10963 10961 10960 10958 10958 10956 10953 10951 10950 10949 10947 10946 10945 10947 10949 10950 10951 10953 10954
11036 11036 11035 11032 11033 11032 11031 11029 11026 11024 11022 11019 11013 11010 11006 11003 11001 10998 10994 10991 10987 10983 10979 10975 10973 10970 10968 10965 10963 10960 10957 10956 10955 10954 10952 10950 10948 10945 10942 10939 10938 10938 10938 10938 10940 10943 10943 10944 10947
11037 11036 11035 11035 11034 11033 11033 11030 11027 11024 11022 11019 11016 11013 11007 11003 11001 10998 10995 10991 10986 10981 10977 10974 10971 10968 10964 10961 10958 10954 10950 10948 10948 10948 10947 10946 10943 10941 10939 10935 10932 10930 10930 10929 10931 10933 10936 10937 10937
11037 11037 11037 11036 11035 11033 11033 11031 11027 11023 11021 11019 11017 11013 11009 11005 11000 10996 10991 10988 10983 10978 10975 10971 10968 10963 10959 10955 10952 10948 10946 10943 10942 10941 10941 10940 10938 10934 10931 10928 10925 10923 10922 10921 10921 10923 10924 10927 10929
11038 11038 11038 11036 11035 11034 11033 11030 11027 11024 11021 11018 11016 11013 11007 11003 10999 10995 10990 10985 10980 10975 10970 10966 10961 10957 10953 10948 10945 10943 10941 10938 10937 10935 10933 10932 10929 10924 10921 10919 10918 10917 10915 10914 10913 10913 10913 10915 10918
11037 11038 11037 11037 11035 11033 11031 11029 11027 11024 11021 11018 11015 11011 11006 11003 11000 10994 10988 10983 10977 10972 10967 10962 10956 10951 10945 10940 10937 10933 10932 10931 10931 10929 10927 10926 10923 10919 10914 10912 10909 10908 10909 10910 10910 10909 10908 10908 10908
11037 11037 11036 11036 11034 11032 11031 11029 11026 11023 11020 11016 11014 11012 11007 11002 10998 10993 10988 10982 10976 10969 10964 10958 10952 10946 10940 10935 10930 10927 10924 10922 10922 10921 10921 10919 10917 10914 10910 10908 10906 10903 10903 10906 10906 10905 10903 10901 10899
11034 11034 11033 11031 11030 11029 11029 11027 11024 11021 11018 11015 11014 11012 11007 11002 10998 10994 10988 10982 10975 10968 10962 10954 10946 10939 10933 10929 10923 10921 10919 10917 10915 10913 10913 10912 10911 10908 10905 10901 10901 10901 10902 10900 10902 10901 10896 10893 10891
11031 11031 11028 11027 11026 11025 11025 11024 11022 11018 11015 11012 11011 11008 11004 10999 10993 10990 10984 10978 10972 10965 10958 10950 10942 10937 10932 10926 10918 10916 10914 10912 10910 10909 10907 10908 10907 10906 10902 10898 10896 10896 10893 10892 10893 10894 10892 10889 10884
11028 11026 11023 11023 11022 11023 11021 11020 11018 11013 11010 11006 11002 10999 10995 10989 10984 10981 10975 10968 10963 10959 10951 10944 10936 10934 10929 10922 10916 10911 10908 10906 10903 10903 10903 10900 10897 10892 10892 10892 10889 10887 10884 10883 10886 10882 10883 10884 10881
11023 11023 11022 11021 11020 11020 11018 11015 11012 11008 11004 11002 10998 10993 10989 10984 10980 10976 10975 10970 10963 10954 10949 10943 10936 10929 10925 10922 10914 10908 10904 10900 10898 10897 10892 10891 10889 10887 10881 10882 10884 10881 10872 10869 10870 10875 10873 10872 10869
11022 11021 11022 11019 11020 11018 11016 11013 11008 11005 11001 10997 10994 10992 10987 10982 10977 10972 10967 10963 10958 10953 10945 10936 10929 10924 10921 10911 10910 10904 10897 10892 10888 10885 10884 10882 10877 10874 10867 10863 10873 10873 10869 10867 10857 10856 10859 10862 10859
11016 11017 11017 11015 11014 11013 11011 11010 11005 11001 10998 10994 10988 10984 10979 10976 10972 10968 10963 10959 10953 10947 10942 10936 10928 10923 10919 10916 10905 10897 10891 10884 10880 10875 10875 10872 10862 10856 10859 10856 10860 10863 10860 10856 10845 10839 10840 10842 10844
11010 11011 11011 11010 11009 11007 11005 11003 11001 10996 10994 10991 10986 10980 10976 10972 10967 10962 10957 10952 10946 10939 10930 10925 10918 10911 10905 10902 10897 10888 10879 10874 10867 10864 10858 10855 10850 10844 10840 10841 10843 10844 10843 10835 10829 10828 10826 10826 10830
11006 11006 11005 11005 11004 11000 10999 10996 10995 10993 10989 10986 10982 10977 10971 10966 10959 10951 10946 10940 10935 10928 10919 10911 10904 10897 10891 10885 10882 10875 10869 10861 10855 10847 10843 10837 10836 10832 10829 10826 10825 10824 10823 10816 10814 10812 10813 10811 10811
11000 10998 10998 10998 10996 10993 10992 10991 10989 10987 10985 10980 10974 10969 10965 10958 10951 10944 10937 10931 10924 10917 10909 10901 10895 10888 10882 10873 10865 10860 10853 10845 10839 10832 10824 10820 10817 10814 10812 10811 10808 10802 10802 10800 10799 10798 10795 10796 10795